Terug naar catalogus

COSMOS 2251 DEB

ActiefLEO
NORAD 35435·DEBRIS·🇷🇺 Russia

Gelanceerd Jun 16, 1993 vanaf Plesetsk Cosmodrome

Loading…

Volgende Passages (komende 24 uur)

TLE

VersSource: Space-Track

Epoch: Sep 13, 2026, 08:28 UTC

1 35435U 93036AKD 26256.35296887  .00007526  00000-0  86248-3 0  9991
2 35435  74.0060 279.9505 0014155 302.2802  70.3568 14.86011993916095

Volg COSMOS 2251 DEB in realtime met AllMySat

Download on the App Store